Weather History for Jackson, WY

Change the Weather History Date:

Saturday, March 2, 2013

  Actual Average Record
Temperature  
Mean Temperature 29 °F -  
Max Temperature 39 °F 36 °F 47 °F (1992)
Min Temperature 19 °F 10 °F -20 °F (1965)
Degree Days  
Heating Degree Days 36    
Moisture  
Dew Point 25 °F    
Average Humidity 84    
Maximum Humidity 100    
Minimum Humidity 65    
Precipitation  
Precipitation 0.00 in - - ()
Sea Level Pressure  
Sea Level Pressure 30.31 in    
Wind  
Wind Speed 6 mph (NE)    
Max Wind Speed 16 mph    
Max Gust Speed -    
Visibility 10 miles    
Events      
Averages and records for this station are not official NWS values.
T = Trace of Precipitation, MM = Missing Value Source: NWS Daily Summary

Daily Weather History Graph

Daily Weather History Graph

Search for Another Location

Airport:

Trip Planner

Search our weather history database for the weather conditions in past years. The results will help you decide how hot, cold, wet, or windy it might be!

Date:

Astronomy

Mar. 02, 2013 Rise Set
Actual Time 6:57 AM MST 6:13 PM MST
Civil Twilight 6:28 AM MST 6:42 PM MST
Nautical Twilight 5:55 AM MST 7:15 PM MST
Astronomical Twilight 5:22 AM MST 7:48 PM MST
Moon No Moon Rise 9:16 AM MST
Length of Visible Light 12h 13m
Length of Day
11h 16m
Waning Gibbous, 73% of the Moon is Illuminated
Mar 2
Waning Gibbous
Mar 4
Last Quarter
Mar 11
New
Mar 19
First Quarter
Mar 27
Full

Hourly Weather History & Observations

Time (MST) Temp. Windchill Dew Point Humidity Pressure Visibility Wind Dir Wind Speed Gust Speed Precip Events Conditions
12:35 AM 26.6 °F 17.5 °F 24.8 °F 93% 30.45 in 5.0 mi North 9.2 mph - N/A   Overcast
12:55 AM 26.6 °F 16.8 °F 24.8 °F 93% 30.46 in 9.0 mi North 10.4 mph - N/A   Overcast
1:15 AM 26.6 °F 15.7 °F 24.8 °F 93% 30.46 in 10.0 mi North 12.7 mph - N/A   Overcast
1:35 AM 26.6 °F 16.8 °F 26.6 °F 100% 30.46 in 10.0 mi North 10.4 mph - N/A   Overcast
1:55 AM 26.6 °F 20.0 °F 26.6 °F 100% 30.46 in 10.0 mi NE 5.8 mph - N/A   Mostly Cloudy
2:15 AM 26.6 °F - 24.8 °F 93% 30.46 in 10.0 mi Calm Calm - N/A   Scattered Clouds
2:35 AM 24.8 °F - 24.8 °F 100% 30.45 in 10.0 mi Calm Calm - N/A   Mostly Cloudy
3:15 AM 21.2 °F 14.9 °F 21.2 °F 100% 30.44 in 10.0 mi North 4.6 mph - N/A   Mostly Cloudy
3:35 AM 19.4 °F 8.6 °F 19.4 °F 100% 30.44 in 10.0 mi North 9.2 mph - N/A   Scattered Clouds
3:55 AM 21.2 °F 14.9 °F 19.4 °F 93% 30.43 in 10.0 mi NE 4.6 mph - N/A   Partly Cloudy
4:15 AM 19.4 °F 12.8 °F 19.4 °F 100% 30.43 in 10.0 mi NE 4.6 mph - N/A   Partly Cloudy
4:55 AM 21.2 °F - 21.2 °F 100% 30.44 in 10.0 mi Calm Calm - N/A   Partly Cloudy
5:15 AM 19.4 °F 12.8 °F 19.4 °F 100% 30.43 in 10.0 mi NNE 4.6 mph - N/A   Scattered Clouds
5:35 AM 19.4 °F 12.8 °F 19.4 °F 100% 30.44 in 10.0 mi NNE 4.6 mph - N/A   Scattered Clouds
5:56 AM 19.4 °F 8.6 °F 19.4 °F 100% 30.44 in 10.0 mi North 9.2 mph - N/A   Scattered Clouds
6:15 AM 23.0 °F 14.7 °F 23.0 °F 100% 30.44 in 10.0 mi North 6.9 mph - N/A   Clear
6:35 AM 23.0 °F 15.8 °F 21.2 °F 93% 30.44 in 10.0 mi NNE 5.8 mph - N/A   Partly Cloudy
6:52 AM 21.2 °F - 19.4 °F 93% 30.44 in 10.0 mi Calm Calm - N/A   Overcast
7:55 AM 19.4 °F - 19.4 °F 100% 30.43 in 10.0 mi Calm Calm - N/A   Scattered Clouds
8:53 AM 24.8 °F - 23.0 °F 93% 30.43 in 10.0 mi Calm Calm - N/A   Scattered Clouds
9:54 AM 30.2 °F - 26.6 °F 86% 30.41 in 10.0 mi Calm Calm - N/A   Partly Cloudy
11:51 AM 33.8 °F 28.6 °F 28.4 °F 81% 30.36 in 10.0 mi East 5.8 mph - N/A   Partly Cloudy
12:52 PM 37.4 °F 34.9 °F 28.4 °F 70% 30.33 in 10.0 mi South 3.5 mph - N/A   Clear
1:53 PM 37.4 °F 34.9 °F 28.4 °F 70% 30.28 in 10.0 mi ENE 3.5 mph - N/A   Clear
2:51 PM 39.2 °F 35.9 °F 28.4 °F 65% 30.25 in 10.0 mi East 4.6 mph - N/A   Clear
3:51 PM 39.2 °F 37.0 °F 28.4 °F 65% 30.23 in 10.0 mi ENE 3.5 mph - N/A   Clear
4:54 PM 39.2 °F - 30.2 °F 70% 30.19 in 10.0 mi Calm Calm - N/A   Clear
5:57 PM 37.4 °F - 30.2 °F 75% 30.16 in 10.0 mi Calm Calm - N/A   Clear
6:59 PM 39.2 °F 33.6 °F 28.4 °F 65% 30.13 in 10.0 mi SSW 8.1 mph - N/A   Clear
7:58 PM 35.6 °F 30.7 °F 28.4 °F 75% 30.11 in 10.0 mi SSW 5.8 mph - N/A   Clear
8:51 PM 37.4 °F - 26.6 °F 65% 30.10 in 10.0 mi Calm Calm - N/A   Clear
9:35 PM 37.4 °F - 26.6 °F 65% 30.09 in 10.0 mi Calm Calm - N/A   Clear
9:55 PM 35.6 °F - 26.6 °F 70% 30.09 in 10.0 mi Calm Calm - N/A   Scattered Clouds
10:15 PM 35.6 °F 32.8 °F 26.6 °F 70% 30.09 in - WSW 3.5 mph - N/A   Scattered Clouds
10:35 PM 37.4 °F 31.4 °F 26.6 °F 65% 30.08 in 10.0 mi SW 8.1 mph - N/A   Mostly Cloudy
10:55 PM 37.4 °F 30.8 °F 26.6 °F 65% 30.07 in 10.0 mi SW 9.2 mph - N/A   Overcast
11:15 PM 37.4 °F 28.2 °F 28.4 °F 70% 30.07 in 10.0 mi South 16.1 mph - N/A   Overcast
11:35 PM 37.4 °F 28.5 °F 28.4 °F 70% 30.06 in 10.0 mi South 15.0 mph - N/A   Overcast
11:55 PM 37.4 °F 28.9 °F 28.4 °F 70% 30.05 in 10.0 mi South 13.8 mph - N/A   Overcast